Regional Weather Roundup
Issued by NWS

Home | Current Version | Previous Version | Graphics & Text | Print | Product List | Glossary On
Versions: 1 2 3 4 5 6 7 8 9 10 11 12 13 14 15 16 17 18 19 20 21 22 23 24 25 26 27 28 29 30 31 32 33 34 35 36 37 38 39 40 41 42 43 44 45 46 47 48 49 50
045
ASUS45 KCYS 250310
RWRWY

WYOMING REGIONAL WEATHER ROUNDUP
NATIONAL WEATHER SERVICE CHEYENNE WY
900 PM MDT TUE MAY 24 2016

NOTE:  "FAIR" INDICATES FEW OR NO CLOUDS BELOW 12,000 FEET
WITH NO SIGNIFICANT WEATHER AND/OR OBSTRUCTIONS TO VISIBILITY.

WYZ001-250400-
YELLOWSTONE NATIONAL PARK

CITY           SKY/WX    TMP DP  RH WIND       PRES   REMARKS
LK YELLOWSTONE   N/A     37  35  92 CALM      30.00R
W YELLOWSTONE  NOT AVBL

$$
WYZ002>013-054>058-071-098>099-250400-
NORTHERN WYOMING

CITY           SKY/WX    TMP DP  RH WIND       PRES   REMARKS
JACKSON        NOT AVBL
CODY           MOCLDY    48  41  76 NW5       29.90S
GREYBULL       LGT RAIN  55  48  77 W6        29.88R
WORLAND        CLOUDY    50  47  89 SE3       29.88R
SHERIDAN       HVY RAIN  50  46  86 SW15G28   29.92R FOG
BUFFALO        LGT RAIN  50  43  77 NW15      29.91F
GILLETTE       LGT RAIN  52  49  89 NW7       29.86R
HULETT         FAIR      50  46  87 E7        29.83F
NEWCASTLE      FAIR      57  39  51 E9        29.82R

$$
WYZ014>020-022>026-101>103-250400-
CENTRAL WYOMING

CITY           SKY/WX    TMP DP  RH WIND       PRES   REMARKS
BIG PINEY      FAIR      40  37  89 NE13      30.00R WCI  32
PINEDALE       CLOUDY    39  37  93 NW10      30.01R WCI  32
DUBOIS         CLOUDY    41  32  70 N7        29.95S
LANDER         FAIR      48  37  65 CALM      29.88S
RIVERTON       FAIR      50  39  66 NW15      29.90R
CASPER         FAIR      52  40  63 S9        29.90R
DOUGLAS        FAIR      58  42  55 NW23G33   29.83R

$$
WYZ021-027>030-104>119-250400-
SOUTHERN WYOMING

CITY           SKY/WX    TMP DP  RH WIND       PRES   REMARKS
EVANSTON       MOCLDY    41  35  79 SW10      30.00S
KEMMERER       RAIN      37  36  93 S9G18     30.04R WCI  31
FORT BRIDGER   PTCLDY    41  41 100 NW5       30.04F
ROCK SPRINGS   MOCLDY    44  36  73 NW10      29.99R
DIXON          CLOUDY    56  28  34 SW7       29.98R
RAWLINS        MOCLDY    51  34  52 SW9G35    29.97R
SARATOGA       LGT RAIN  50  34  53 NW13G20   29.99R
LARAMIE        FAIR      51  39  63 S9        29.92R
CHEYENNE       FAIR      54  43  66 SW7       29.88S
TORRINGTON     FAIR      59  43  55 E17       29.83R
PINE BLUFFS    FAIR      48  45  87 CALM      29.86S

$$




USA.gov is the U.S. government's official web portal to all federal, state and local government web resources and services.